Date String (YYYY-MM-DD hh:mm:ss) UTC,Instrument flags,absolute air pressure of the measurement (hPa),sample flow rate (lpm),inlet stack bypass flow (lpm),air temperature of the measurement (°C),ambient temperature measured by the external sensor (°C),aerosol sample conditioner tube jacket temperature (°C),OPC LED temperature (°C),internal box temperature (°C),relative humidity of the measurement (%),span deviation,mass concentration of particles derived from Lorenz-Mie calculation of OPC scattering (μg/m³),mass concentration of particles derived from Lorenz-Mie calculation of OPC scattering (μg/m³),mass concentration of particles derived from Lorenz-Mie calculation of OPC scattering (μg/m³)
DateTimeUTC,F1_M11,P_M11,Q1_M11,Q2_M11,T1_M11,T2_M11,T3_M11,T4_M11,T5_M11,U1_M11,ZSPAN_M11,X0_M11,X2_M11,X1_M11
2024-03-04 10:00:00,SystemResetWarning,0821.3,5.02,000.00,018.5,017.9,000.0,027.0,020.0,15.5,0000.0,0006.61,0000.82,0000.34
2024-03-04 10:01:00,SystemResetWarning,0821.4,5.01,000.00,018.4,017.8,000.0,027.0,020.0,15.4,0000.0,0006.66,0000.78,0000.34
2024-03-04 10:02:00,SystemResetWarning,0821.4,4.99,000.00,018.4,017.7,000.0,027.0,020.0,15.4,0000.0,0006.58,0000.79,0000.34
2024-03-04 10:03:00,SystemResetWarning,0821.3,4.99,000.00,018.4,017.6,000.0,027.1,020.0,15.1,0000.0,0006.44,0000.81,0000.35
2024-03-04 10:04:00,SystemResetWarning,0821.6,5.00,000.00,018.3,017.6,000.0,027.1,020.0,14.6,0000.0,0006.47,0000.84,0000.34
2024-03-04 10:05:00,SystemResetWarning,0822.0,5.00,000.00,018.3,017.5,000.0,027.1,020.0,14.2,0000.0,0006.26,0000.80,0000.33
2024-03-04 10:06:00,SystemResetWarning,0821.9,5.01,000.00,018.3,017.4,000.0,027.1,020.0,14.1,0000.0,0006.00,0000.72,0000.32
2024-03-04 10:07:00,SystemResetWarning,0821.5,5.00,000.00,018.3,017.4,000.0,027.1,020.0,13.9,0000.0,0006.52,0000.68,0000.32
2024-03-04 10:08:00,SystemResetWarning,0821.7,5.00,000.00,018.3,017.3,000.0,027.1,020.0,13.9,0000.0,0007.51,0000.68,0000.32
2024-03-04 10:09:00,SystemResetWarning,0821.9,5.00,000.00,018.3,017.5,000.0,027.1,020.1,14.1,0000.0,0006.72,0000.68,0000.33
2024-03-04 10:10:00,SystemResetWarning,0822.0,5.00,000.00,018.4,018.3,000.0,027.2,020.5,13.9,0000.0,0006.37,0000.71,0000.34
2024-03-04 10:11:00,SystemResetWarning,0822.1,4.99,000.00,018.7,018.9,000.0,027.2,020.8,13.8,0000.0,0004.79,0000.72,0000.34
2024-03-04 10:12:00,SystemResetWarning,0822.0,4.99,000.00,018.7,018.8,000.0,027.1,020.6,13.8,0000.0,0004.39,0000.77,0000.35
2024-03-04 10:13:00,SystemResetWarning,0821.9,5.01,000.00,018.6,018.5,000.0,027.0,020.3,13.8,0000.0,0004.40,0000.81,0000.36
2024-03-04 10:14:00,SystemResetWarning,0822.0,5.01,000.00,018.5,018.2,000.0,027.0,020.1,13.7,0000.0,0004.74,0000.88,0000.36
2024-03-04 10:15:00,SystemResetWarning,0821.9,5.00,000.00,018.5,018.0,000.0,027.0,020.0,13.9,0000.0,0005.46,0000.89,0000.38
2024-03-04 10:16:00,SystemResetWarning,0822.0,4.99,000.00,018.4,017.8,000.0,027.0,020.0,14.0,0000.0,0005.63,0000.93,0000.38
2024-03-04 10:17:00,SystemResetWarning,0821.6,4.99,000.00,018.4,017.6,000.0,027.0,020.0,13.7,0000.0,0005.90,0001.01,0000.40
2024-03-04 10:18:00,SystemResetWarning,0821.9,5.01,000.00,018.4,017.5,000.0,027.1,020.0,13.8,0000.0,0005.37,0001.00,0000.41
2024-03-04 10:19:00,SystemResetWarning,0822.1,5.01,000.00,018.3,017.4,000.0,027.1,020.0,13.9,0000.0,0004.43,0000.96,0000.41
2024-03-04 10:20:00,SystemResetWarning,0822.1,5.01,000.00,018.3,017.3,000.0,027.1,020.0,14.0,0000.0,0004.92,0000.95,0000.41
2024-03-04 10:21:00,SystemResetWarning,0821.9,5.00,000.00,018.3,017.3,000.0,027.1,020.0,13.9,0000.0,0006.28,0000.95,0000.40
2024-03-04 10:22:00,SystemResetWarning,0822.0,4.99,000.00,018.3,017.3,000.0,027.1,020.0,13.9,0000.0,0006.56,0000.93,0000.40
2024-03-04 10:23:00,SystemResetWarning,0822.0,5.00,000.00,018.3,017.6,000.0,027.1,020.2,14.0,0000.0,0007.27,0000.90,0000.39
2024-03-04 10:24:00,SystemResetWarning,0822.0,5.00,000.00,018.5,018.5,000.0,027.2,020.7,13.8,0000.0,0007.31,0000.84,0000.38
2024-03-04 10:25:00,SystemResetWarning,0821.7,4.99,000.00,018.7,019.0,000.0,027.2,020.9,13.4,0000.0,0006.96,0000.80,0000.38
2024-03-04 10:26:00,SystemResetWarning,0821.4,4.99,000.00,018.7,018.8,000.0,027.1,020.7,13.4,0000.0,0006.12,0000.74,0000.37
2024-03-04 10:27:00,SystemResetWarning,0821.3,5.01,000.00,018.7,018.6,000.0,027.1,020.5,13.5,0000.0,0005.98,0000.71,0000.37
2024-03-04 10:28:00,SystemResetWarning,0821.3,5.01,000.00,018.6,018.4,000.0,027.0,020.3,13.6,0000.0,0005.81,0000.68,0000.36
2024-03-04 10:29:00,SystemResetWarning,0821.3,5.00,000.00,018.6,018.2,000.0,027.0,020.2,13.7,0000.0,0005.79,0000.69,0000.36
2024-03-04 10:30:00,SystemResetWarning,0821.3,4.99,000.00,018.5,018.0,000.0,027.0,020.1,13.8,0000.0,0005.64,0000.72,0000.35
2024-03-04 10:31:00,SystemResetWarning,0821.3,5.00,000.00,018.5,017.9,000.0,027.0,020.1,13.8,0000.0,0004.89,0000.73,0000.35
2024-03-04 10:32:00,SystemResetWarning,0821.3,5.00,000.00,018.4,017.8,000.0,027.0,020.0,13.8,0000.0,0003.61,0000.71,0000.34
2024-03-04 10:33:00,SystemResetWarning,0821.3,5.00,000.00,018.4,017.7,000.0,027.0,020.0,13.8,0000.0,0002.81,0000.71,0000.34
2024-03-04 10:34:00,SystemResetWarning,0821.3,5.01,000.00,018.4,017.7,000.0,027.0,020.0,13.7,0000.0,0002.61,0000.71,0000.34
2024-03-04 10:35:00,SystemResetWarning,0821.3,5.00,000.00,018.3,017.6,000.0,027.0,020.0,13.8,0000.0,0001.89,0000.70,0000.33
2024-03-04 10:36:00,SystemResetWarning,0821.3,5.01,000.00,018.3,017.6,000.0,027.0,020.0,13.7,0000.0,0002.01,0000.72,0000.33
2024-03-04 10:37:00,SystemResetWarning,0821.3,5.00,000.00,018.3,017.6,000.0,027.0,020.0,13.7,0000.0,0001.94,0000.69,0000.33
2024-03-04 10:38:00,SystemResetWarning,0821.3,4.99,000.00,018.3,017.5,000.0,027.0,020.0,13.9,0000.0,0002.00,0000.71,0000.33
2024-03-04 10:39:00,SystemResetWarning,0821.4,5.00,000.00,018.3,017.5,000.0,027.0,020.0,14.1,0000.0,0002.14,0000.74,0000.33
2024-03-04 10:40:00,SystemResetWarning,0821.3,5.00,000.00,018.3,017.5,000.0,027.0,020.0,13.9,0000.0,0002.82,0000.77,0000.33
2024-03-04 10:41:00,SystemResetWarning,0821.3,5.00,000.00,018.3,017.5,000.0,027.0,020.0,13.6,0000.0,0003.26,0000.76,0000.33
2024-03-04 10:42:00,SystemResetWarning,0821.5,5.00,000.00,018.2,017.5,000.0,027.0,020.0,13.5,0000.0,0003.00,0000.75,0000.33
2024-03-04 10:43:00,SystemResetWarning,0821.6,5.00,000.00,018.2,017.4,000.0,027.0,020.0,13.5,0000.0,0003.05,0000.75,0000.32
2024-03-04 10:44:00,SystemResetWarning,0821.9,5.00,000.00,018.2,017.4,000.0,027.0,020.0,13.5,0000.0,0003.48,0000.78,0000.32
2024-03-04 10:45:00,SystemResetWarning,0821.6,5.00,000.00,018.2,017.3,000.0,027.0,020.0,13.5,0000.0,0003.45,0000.79,0000.32
2024-03-04 10:46:00,SystemResetWarning,0821.3,5.00,000.00,018.2,017.4,000.0,027.0,020.0,13.4,0000.0,0003.41,0000.79,0000.33
2024-03-04 10:47:00,SystemResetWarning,0821.3,5.00,000.00,018.3,017.9,000.0,027.1,020.3,13.4,0000.0,0003.45,0000.81,0000.33
2024-03-04 10:48:00,SystemResetWarning,0821.3,5.00,000.00,018.5,018.8,000.0,027.1,020.8,13.2,0000.0,0003.77,0000.84,0000.34
2024-03-04 10:49:00,SystemResetWarning,0821.3,5.00,000.00,018.8,019.3,000.0,027.1,021.1,13.1,0000.0,0004.11,0000.87,0000.34
2024-03-04 10:50:00,SystemResetWarning,0821.4,4.99,000.00,018.8,019.1,000.0,027.1,020.9,13.0,0000.0,0004.03,0000.84,0000.35
2024-03-04 10:51:00,SystemResetWarning,0822.0,5.01,000.00,018.8,018.8,000.0,027.0,020.6,13.1,0000.0,0003.48,0000.81,0000.34
2024-03-04 10:52:00,SystemResetWarning,0821.7,5.02,000.00,018.7,018.6,000.0,027.0,020.4,13.1,0000.0,0003.91,0000.82,0000.33
2024-03-04 10:53:00,SystemResetWarning,0821.6,4.99,000.00,018.7,018.4,000.0,027.0,020.3,13.1,0000.0,0004.68,0000.80,0000.33
2024-03-04 10:54:00,SystemResetWarning,0821.5,5.00,000.00,018.6,018.2,000.0,027.0,020.2,13.2,0000.0,0004.84,0000.84,0000.34
2024-03-04 10:55:00,SystemResetWarning,0821.6,5.00,000.00,018.6,018.0,000.0,027.0,020.2,13.2,0000.0,0004.31,0000.81,0000.34
2024-03-04 10:56:00,SystemResetWarning,0821.5,5.02,000.00,018.5,017.9,000.0,027.0,020.1,13.3,0000.0,0004.21,0000.78,0000.34
2024-03-04 10:57:00,SystemResetWarning,0821.6,5.00,000.00,018.4,017.8,000.0,027.0,020.0,13.3,0000.0,0004.37,0000.83,0000.34
2024-03-04 10:58:00,SystemResetWarning,0821.6,4.99,000.00,018.4,017.7,000.0,027.0,020.0,13.3,0000.0,0004.31,0000.84,0000.34
2024-03-04 10:59:00,SystemResetWarning,0821.7,4.99,000.00,018.4,017.7,000.0,027.0,020.0,13.3,0000.0,0004.07,0000.83,0000.33
